Burnet, TX

9:55 AM CDT on May 28, 2017 (GMT -0500)
Burnet Municipal-Craddock

Weather History for KBMQ - October, 2011

Change the Weather History Date:

Thursday, October 6, 2011

  Actual Average Record
Temperature  
Mean Temperature 78 °F -  
Max Temperature 87 °F 78 °F 91 °F (2006)
Min Temperature 70 °F 58 °F 48 °F (2010)
Cooling Degree Days 14    
Growing Degree Days 28 (Base 50)    
Moisture  
Dew Point 64 °F    
Average Humidity 66    
Maximum Humidity 84    
Minimum Humidity 46    
Precipitation  
Precipitation 0.00 in - - ()
Sea Level Pressure  
Sea Level Pressure 29.96 in    
Wind  
Wind Speed 10 mph (SSE)    
Max Wind Speed 16 mph    
Max Gust Speed 29 mph    
Visibility 10 miles    
Events      
Averages and records for this station are not official NWS values.
T = Trace of Precipitation, MM = Missing Value Source: NWS Daily Summary

Daily Weather History Graph

Daily Weather History Graph

Search for Another Location

Airport or City:

Trip Planner

Search our weather history database for the weather conditions in past years. The results will help you decide how hot, cold, wet, or windy it might be!

Date:

Astronomy

Oct. 06, 2011 Rise Set
Actual Time 7:29 AM CDT 7:12 PM CDT
Civil Twilight 7:05 AM CDT 7:36 PM CDT
Nautical Twilight 6:37 AM CDT 8:04 PM CDT
Astronomical Twilight 6:09 AM CDT 8:32 PM CDT
Moon 4:09 PM CDT (10/6) 2:39 AM CDT (10/6)
Length of Visible Light 12h 31m
Length of Day
11h 42m
Waxing Gibbous, 75% of the Moon is Illuminated
Oct 6
Waxing Gibbous
Oct 11
Full
Oct 19
Last Quarter
Oct 26
New
Nov 2
First Quarter

Hourly Weather History & Observations

Time (CDT) Temp. Heat Index Dew Point Humidity Pressure Visibility Wind Dir Wind Speed Gust Speed Precip Events Conditions
12:53 AM 73.0 °F - 62.1 °F 68% 29.99 in 10.0 mi SSE 8.1 mph - N/A   Scattered Clouds
1:53 AM 72.0 °F - 64.0 °F 76% 29.99 in 10.0 mi SSE 8.1 mph 17.3 mph N/A   Overcast
2:53 AM 72.0 °F - 64.0 °F 76% 29.99 in 10.0 mi SSE 6.9 mph - N/A   Overcast
3:27 AM 71.6 °F - 64.4 °F 78% 30.03 in 10.0 mi SSE 9.2 mph - N/A   Overcast
3:53 AM 71.1 °F - 64.0 °F 78% 29.98 in 10.0 mi SE 8.1 mph 16.1 mph N/A   Overcast
4:53 AM 70.0 °F - 64.9 °F 84% 29.97 in 10.0 mi SSE 8.1 mph 18.4 mph N/A   Overcast
5:53 AM 70.0 °F - 64.9 °F 84% 29.98 in 10.0 mi SE 9.2 mph - N/A   Overcast
6:53 AM 70.0 °F - 64.9 °F 84% 29.99 in 10.0 mi SSE 6.9 mph - N/A   Overcast
7:53 AM 70.0 °F - 64.9 °F 84% 29.99 in 8.0 mi SE 9.2 mph - N/A   Overcast
8:53 AM 71.1 °F - 64.9 °F 81% 30.01 in 8.0 mi SSE 8.1 mph 16.1 mph N/A   Overcast
9:53 AM 73.0 °F - 64.9 °F 76% 30.01 in 9.0 mi SE 10.4 mph - N/A   Overcast
10:10 AM 73.4 °F - 64.4 °F 73% 30.06 in 9.0 mi SSE 8.1 mph - N/A   Unknown
10:53 AM 75.9 °F - 64.0 °F 67% 30.01 in 10.0 mi SSE 9.2 mph 24.2 mph N/A   Unknown
11:53 AM 79.0 °F - 63.0 °F 58% 29.99 in 10.0 mi South 13.8 mph 21.9 mph N/A   Unknown
12:53 PM 82.9 °F 83.3 °F 61.0 °F 47% 29.97 in 10.0 mi SSE 13.8 mph 23.0 mph N/A   Scattered Clouds
1:53 PM 84.0 °F 84.4 °F 61.0 °F 46% 29.94 in 10.0 mi SSE 10.4 mph 23.0 mph N/A   Mostly Cloudy
2:53 PM 84.9 °F 85.9 °F 63.0 °F 48% 29.91 in 10.0 mi SSE 16.1 mph 21.9 mph N/A   Scattered Clouds
3:53 PM 86.0 °F 87.3 °F 64.0 °F 48% 29.90 in 10.0 mi SSE 15.0 mph 24.2 mph N/A   Scattered Clouds
4:53 PM 87.1 °F 88.3 °F 64.0 °F 46% 29.88 in 10.0 mi SSE 15.0 mph 24.2 mph N/A   Partly Cloudy
5:53 PM 84.9 °F 86.6 °F 64.9 °F 51% 29.88 in 10.0 mi SSE 11.5 mph 24.2 mph N/A   Partly Cloudy
6:53 PM 84.9 °F 86.6 °F 64.9 °F 51% 29.87 in 10.0 mi SE 11.5 mph 21.9 mph N/A   Partly Cloudy
7:53 PM 82.9 °F 85.0 °F 66.0 °F 56% 29.89 in 10.0 mi SE 10.4 mph 23.0 mph N/A   Clear
8:53 PM 82.0 °F 83.4 °F 64.0 °F 54% 29.90 in 10.0 mi SE 15.0 mph 25.3 mph N/A   Clear
9:53 PM 80.1 °F 81.5 °F 63.0 °F 56% 29.92 in 10.0 mi SSE 10.4 mph 28.8 mph N/A   Clear
10:53 PM 78.1 °F - 64.0 °F 62% 29.94 in 10.0 mi SSE 13.8 mph 26.5 mph N/A   Clear
11:53 PM 75.9 °F - 66.0 °F 71% 29.95 in 10.0 mi SSE 10.4 mph 25.3 mph N/A   Mostly Cloudy